Wind_Speed
24 23 23 24 25 25 25 24 24 24 24 22 19 18 18 17 18 18 17 17 18 18 18 17 17 17 17 17 17 16 15 14 13 13 12 12 12 12 11 10 11 11 11 11 11 10 10 10 9 7 6 6 7 7 8 8 8 8 8 9 9 9 10 8 9 11 15 15 15 15 13 13 15 15 15 14 12 11 11 11 11 12 14 16 17
25 22 23 24 25 25 24 23 23 23 23 22 20 19 18 18 17 17 18 18 18 18 19 18 18 18 18 19 18 17 16 15 14 14 14 13 12 12 12 11 11 11 11 11 11 10 10 11 10 9 7 7 8 8 9 10 10 11 10 10 10 9 10 10 9 10 14 17 16 15 12 12 15 16 16 15 14 13 13 12 12 15 16 17 18
24 23 25 26 26 26 25 24 24 23 23 23 22 20 20 19 19 19 19 18 18 18 19 19 19 19 19 19 19 19 18 17 16 16 16 15 14 13 13 12 12 12 12 13 11 10 10 11 12 11 10 10 10 9 9 10 10 10 11 10 11 10 10 11 10 9 13 15 15 15 14 14 16 17 18 18 17 16 16 15 16 18 18 17 17
22 23 27 27 26 26 26 25 25 25 24 23 23 22 21 21 21 21 20 20 20 20 20 19 20 20 20 19 20 20 19 18 17 17 17 17 16 15 14 14 14 13 14 14 13 12 12 12 12 12 12 12 13 12 11 11 10 11 11 11 11 11 11 12 12 11 11 14 15 15 15 15 17 19 20 20 19 18 18 19 20 20 18 16 16
22 23 27 29 27 26 25 24 25 25 25 24 23 22 21 21 21 21 22 22 23 22 21 20 20 21 21 21 20 21 20 19 19 19 18 18 18 17 16 16 15 15 15 15 14 14 14 14 14 13 13 13 14 15 14 13 12 12 12 12 12 12 12 14 14 13 13 14 16 16 16 17 19 21 21 20 20 21 21 22 21 20 18 17 17
21 21 24 27 29 27 25 24 23 23 24 24 23 21 20 20 21 21 21 22 23 24 23 23 22 22 22 22 21 21 21 21 20 20 19 19 19 19 19 18 17 17 16 16 15 15 15 16 16 15 15 15 15 15 14 14 14 14 14 14 13 14 15 15 15 15 14 15 16 17 19 19 21 22 21 20 21 22 23 24 23 22 22 21 20
22 21 21 23 25 26 25 25 23 22 21 21 21 20 20 20 20 19 18 18 20 22 23 24 24 23 23 23 23 22 22 23 23 22 21 20 20 20 21 21 20 19 18 17 17 17 17 17 17 16 16 17 17 16 16 16 16 16 17 17 17 17 17 17 16 16 16 16 17 19 20 20 21 22 22 22 22 22 21 20 23 26 27 26 25
21 19 17 16 18 20 21 21 20 19 19 19 19 19 21 21 20 19 18 16 17 18 19 21 22 23 24 24 24 24 24 25 25 24 23 22 22 22 22 22 22 22 21 20 19 18 18 18 18 18 18 18 19 19 19 18 19 20 21 20 20 20 20 20 20 20 19 19 20 21 21 21 22 23 23 23 22 21 19 17 20 27 28 27 28
19 17 15 13 12 12 15 17 16 15 15 14 15 16 18 19 19 19 19 19 19 18 18 19 20 22 23 24 25 26 27 28 27 26 25 24 24 24 23 23 22 22 22 22 21 20 19 19 19 19 19 20 20 20 21 21 22 23 24 23 22 22 22 22 22 22 22 21 22 23 21 21 24 24 23 24 22 22 22 20 21 25 26 26 28
18 15 14 13 9 8 11 13 13 13 12 11 11 12 14 16 17 17 18 19 20 21 21 20 20 22 23 23 23 25 28 29 29 27 26 26 26 25 25 24 23 23 23 23 23 23 22 21 21 21 21 21 21 22 22 22 22 23 24 24 24 25 25 24 24 24 23 22 23 23 20 21 25 25 24 26 25 23 24 23 22 24 25 25 26
11 7 7 9 9 7 6 8 8 8 8 9 9 9 10 12 14 16 16 17 19 21 21 20 20 21 23 24 24 24 27 29 29 29 28 27 27 27 26 26 24 24 24 24 24 25 24 24 24 24 24 24 23 23 23 22 22 23 23 24 25 26 26 26 27 26 24 22 23 23 20 22 27 28 27 28 27 26 26 24 22 23 22 19 20
10 8 8 9 9 9 8 6 4 4 4 5 5 5 6 7 9 11 13 15 17 18 19 19 18 18 19 22 23 24 25 26 27 29 29 29 29 28 28 27 27 26 26 26 26 26 26 27 27 27 27 27 26 26 25 24 23 23 23 24 24 26 26 26 26 26 24 24 24 24 23 24 28 30 30 29 27 27 26 25 23 23 22 19 19
14 13 12 13 12 11 11 9 7 7 5 3 3 4 5 4 4 6 8 10 12 14 16 16 16 16 16 17 19 22 24 25 25 27 28 29 29 28 28 28 28 28 28 28 28 28 28 28 28 28 28 27 27 27 27 26 26 25 25 25 25 26 26 26 25 25 26 25 25 27 27 27 28 30 31 29 27 26 27 28 27 25 24 23 24
15 14 14 14 14 13 11 10 9 8 7 5 3 2 3 3 2 1 4 6 7 8 10 11 12 12 13 13 13 15 17 19 22 24 25 27 28 27 27 27 28 29 29 29 29 29 29 29 29 29 29 28 28 28 28 28 28 28 28 28 28 27 27 28 28 28 29 28 27 28 29 29 30 31 32 31 30 29 29 30 30 28 28 28 28
16 16 15 15 14 13 12 12 12 11 9 8 6 4 3 2 2 1 2 3 3 2 3 5 7 8 9 9 9 9 9 10 12 15 18 21 23 24 25 26 27 28 29 29 29 30 30 30 30 31 30 30 30 30 30 30 30 30 30 30 30 30 30 30 29 29 30 30 30 31 31 32 32 33 34 33 33 33 32 30 29 29 29 30 30
18 17 17 16 15 13 12 12 13 12 11 11 10 8 6 5 4 3 5 6 5 4 2 2 3 4 5 6 6 6 5 4 5 7 10 14 17 19 21 22 24 26 27 28 28 28 29 29 31 31 31 31 30 30 31 32 31 31 32 32 33 33 32 31 29 29 30 31 32 33 32 33 33 33 34 34 34 34 33 31 30 29 27 26 28
17 17 17 16 15 14 13 13 13 13 12 11 11 10 9 8 7 7 7 8 7 7 7 6 6 6 5 3 3 3 3 4 4 4 7 10 13 16 18 19 21 22 23 24 24 24 25 26 27 28 30 30 29 29 30 31 31 32 33 34 34 34 34 33 32 32 32 31 32 32 31 31 31 32 33 33 32 32 31 30 31 29 24 20 21
16 15 16 15 14 13 13 13 12 12 12 12 11 10 9 9 9 8 8 8 6 5 6 8 9 9 8 5 4 6 5 4 5 5 4 8 12 16 17 17 18 20 21 21 21 21 22 23 23 24 27 27 28 28 29 30 32 32 33 33 33 33 35 35 34 34 33 31 31 31 30 31 31 32 32 31 30 29 29 31 31 28 23 20 20
15 14 13 13 13 13 12 12 12 12 12 12 11 11 10 10 10 9 8 8 7 5 5 5 7 8 8 5 6 8 8 7 7 6 4 5 11 15 18 17 17 18 18 18 18 18 18 18 19 20 22 23 24 25 26 27 30 32 32 31 31 32 35 34 32 31 32 31 31 31 31 31 32 32 32 31 29 28 28 30 30 27 25 25 25
13 12 12 12 12 12 12 12 12 12 12 12 11 11 10 10 10 10 10 10 10 8 8 7 8 8 7 6 6 8 9 9 9 8 6 6 9 15 18 18 17 17 17 17 17 17 17 17 17 17 18 19 20 21 22 22 25 27 29 29 30 32 33 32 30 29 29 29 30 31 32 33 34 33 33 32 31 29 28 28 28 27 27 28 28
11 11 11 12 12 13 13 13 12 12 12 11 11 11 11 11 11 11 11 11 11 11 11 11 10 10 9 9 8 6 6 7 8 8 7 6 7 12 15 15 15 16 16 16 16 16 17 17 17 17 17 18 19 20 20 20 21 22 25 27 28 29 31 32 32 31 30 31 32 33 34 35 35 35 33 33 32 30 29 28 28 28 27 27 28
10 10 11 12 13 13 13 14 14 13 13 12 12 12 13 13 13 13 13 12 12 12 12 12 12 11 11 11 11 10 8 7 7 9 9 8 8 11 13 13 13 14 15 15 15 15 16 17 17 17 18 18 19 20 21 22 22 22 23 24 25 26 28 29 31 31 31 32 32 33 34 35 35 35 34 32 32 30 30 30 30 29 28 28 28
9 10 11 12 13 13 13 14 15 15 14 14 13 14 14 14 14 15 15 15 15 15 15 15 14 14 13 12 12 12 11 10 10 11 11 10 9 10 12 12 13 13 14 15 15 15 15 16 16 16 16 17 19 20 21 22 23 23 24 23 24 24 25 26 27 27 28 29 29 30 31 32 32 32 32 31 30 30 30 31 31 31 30 31 31
9 10 11 12 13 13 13 14 14 15 15 14 14 15 15 15 16 16 17 17 17 18 18 18 17 17 17 15 13 11 10 10 10 11 12 12 11 11 12 12 12 13 13 13 14 15 17 18 18 17 17 17 18 18 20 21 22 23 24 24 24 24 24 24 25 24 24 25 26 27 29 30 31 31 31 31 31 32 32 33 34 34 33 33 33
9 10 11 12 13 13 13 13 14 14 15 15 16 16 16 17 17 17 18 18 19 19 19 19 20 20 19 19 18 15 13 12 12 13 14 13 12 12 13 14 14 14 14 15 17 19 20 20 20 20 20 20 20 20 21 21 21 22 23 23 24 25 25 25 25 24 24 25 26 28 30 33 34 34 35 34 34 35 37 37 38 36 34 33 33
10 10 11 11 12 13 13 14 15 14 14 15 16 16 17 17 17 18 18 18 19 19 20 20 21 21 22 22 22 20 18 17 16 16 16 16 15 15 17 18 18 18 18 19 21 22 22 22 21 21 22 22 23 23 24 24 24 25 25 24 23 21 21 21 23 24 26 28 29 30 33 35 37 37 37 35 35 37 37 36 36 36 34 31 30
9 10 10 11 12 13 14 15 15 15 15 15 15 15 16 16 17 17 18 19 19 19 20 20 21 21 22 23 24 23 22 21 20 20 20 19 19 20 20 21 21 21 22 22 23 23 24 24 23 23 22 22 23 23 24 25 25 26 26 25 22 20 20 21 23 24 27 29 31 31 33 34 34 35 34 33 33 36 36 33 32 34 33 28 26
8 9 10 11 12 13 14 15 15 15 15 15 15 15 16 16 17 16 16 16 17 18 19 19 19 20 21 22 23 23 23 22 22 22 21 21 22 22 23 23 23 23 24 25 25 25 24 25 25 24 24 24 24 24 24 24 24 24 24 24 21 21 23 24 23 24 26 28 29 30 32 32 32 33 32 31 32 35 34 30 30 31 30 26 23
8 9 10 11 12 13 14 14 15 16 17 17 17 16 16 16 17 16 15 14 14 15 16 17 17 18 18 19 20 22 23 22 21 21 20 20 21 23 24 25 25 26 27 27 27 26 25 25 25 25 25 25 25 25 25 24 24 24 23 22 20 20 22 23 24 25 26 27 28 29 31 31 32 32 30 29 32 35 32 28 27 28 26 23 23
8 9 10 12 13 13 14 14 15 17 18 19 20 19 18 17 17 17 16 15 14 14 15 16 16 16 16 17 17 19 21 22 21 21 21 21 21 22 24 26 27 28 29 29 28 26 24 24 24 24 24 24 24 24 24 25 25 25 24 23 21 19 20 22 24 26 26 27 28 30 31 31 32 32 30 31 33 34 29 26 25 25 24 22 23
7 8 9 11 11 12 13 14 15 16 17 19 21 22 23 22 20 18 17 18 18 18 17 16 14 12 13 15 16 17 18 20 21 21 21 22 22 23 24 25 26 28 29 30 29 27 24 23 23 23 23 23 23 24 24 24 24 24 25 24 22 20 20 21 23 24 25 26 27 28 30 30 31 31 32 32 33 32 29 27 25 25 25 24 24
6 7 8 9 9 10 11 13 14 15 16 18 19 20 22 23 23 22 21 20 20 19 18 17 16 14 13 14 15 17 18 20 20 20 19 20 21 22 23 24 25 26 28 28 29 28 26 23 22 22 23 23 24 24 24 23 23 23 23 24 24 23 22 22 22 23 24 25 26 27 29 29 30 31 32 33 31 30 30 29 27 25 25 24 24
6 7 8 9 9 10 11 13 14 15 17 18 19 18 18 19 21 23 24 23 21 20 19 18 18 17 17 16 16 18 19 20 20 20 20 20 21 22 24 24 23 24 25 26 26 28 27 25 24 23 23 23 24 24 23 22 21 21 21 22 23 23 23 23 24 24 25 25 26 27 28 28 29 30 31 31 30 28 28 29 27 24 22 22 22
6 7 8 9 10 11 12 13 15 16 18 18 19 18 18 18 18 20 22 23 23 22 21 20 19 20 19 19 19 20 20 21 21 21 21 22 22 24 26 25 22 21 22 23 24 25 27 27 26 25 24 23 23 22 21 19 18 18 20 21 22 24 24 24 24 24 26 26 27 27 28 29 29 29 30 30 29 27 27 28 26 24 21 20 21
8 9 9 10 10 12 13 14 15 17 18 18 18 18 19 19 19 19 20 21 22 22 21 21 20 21 21 21 20 20 21 22 23 23 23 23 23 25 26 25 23 22 23 24 24 25 25 26 25 25 24 22 20 18 17 16 15 16 16 17 19 20 20 21 21 22 23 24 23 24 25 26 27 27 28 29 29 28 27 27 26 24 23 22 22
9 9 9 10 10 12 13 14 15 16 16 17 17 18 19 19 19 20 20 21 21 21 21 21 21 21 20 20 20 21 22 23 24 25 25 25 24 25 25 24 23 24 25 26 26 26 25 25 25 23 20 18 16 15 14 12 11 11 13 15 18 19 20 21 22 23 24 24 24 25 24 23 24 25 26 28 29 29 28 27 26 26 25 24 25
8 9 9 10 11 12 13 13 14 15 15 16 17 18 19 19 19 20 20 20 20 20 21 22 23 23 21 20 20 21 23 24 25 25 25 25 24 25 26 25 24 24 24 25 27 27 26 26 25 20 15 13 13 12 10 9 10 12 15 18 20 22 23 25 25 24 23 24 26 28 27 25 24 24 25 27 29 29 27 27 26 26 27 27 27
8 10 11 12 12 12 13 14 15 15 16 16 17 18 19 19 18 18 18 19 19 20 22 23 23 23 22 22 22 23 24 25 25 24 24 24 24 25 26 27 27 26 25 25 26 26 26 27 25 20 15 13 13 13 12 13 14 16 17 18 20 22 25 27 28 27 26 26 28 30 29 27 26 25 25 27 29 29 28 26 25 25 26 26 25
10 11 12 13 13 13 14 15 16 16 16 17 17 18 17 17 17 17 18 19 20 21 22 23 22 22 23 24 25 26 26 26 24 23 23 24 24 24 25 26 27 27 27 26 26 26 26 27 26 22 19 18 17 17 17 17 17 17 17 19 21 23 25 27 29 30 30 30 30 32 31 30 28 26 25 27 28 28 27 27 26 24 23 23 24
10 11 12 13 13 13 15 15 16 17 17 17 16 17 17 17 18 19 20 21 22 22 22 22 22 22 22 23 25 27 29 29 27 26 26 25 23 23 24 25 26 27 27 26 27 27 28 28 26 23 21 20 19 18 18 18 18 18 18 19 21 24 26 27 29 30 31 32 32 34 34 32 29 26 26 27 28 27 27 29 29 28 26 25 25
9 10 12 13 13 14 15 15 15 15 16 16 17 17 18 19 20 21 21 22 22 22 22 22 22 23 24 25 26 28 29 30 29 28 28 27 26 25 24 24 25 26 26 27 28 29 28 26 23 21 20 19 18 18 18 18 18 18 19 21 23 25 27 29 29 30 31 31 32 33 33 33 30 28 29 29 29 29 29 29 30 30 29 27 26
9 10 11 12 13 14 15 14 14 15 17 18 19 18 19 20 20 20 21 21 22 24 26 27 28 28 28 28 27 26 27 28 28 28 28 29 28 28 27 26 26 26 27 28 28 28 27 24 22 21 20 19 19 18 18 19 20 20 21 23 24 26 27 29 30 30 29 29 30 31 31 31 30 30 31 31 30 30 30 30 30 30 29 29 28
8 8 10 11 12 13 13 14 15 16 17 17 18 17 17 19 20 20 21 22 24 26 28 29 30 31 30 30 29 28 28 28 28 27 28 28 28 29 28 28 28 28 29 29 28 27 27 25 24 23 22 21 20 20 20 21 22 23 24 24 25 26 27 28 29 29 28 27 28 29 29 29 28 29 31 33 32 31 31 31 31 30 29 29 28
7 9 10 11 12 13 14 14 15 15 14 15 16 16 17 18 20 21 22 23 24 24 26 28 30 31 33 33 32 31 31 30 29 29 29 29 29 30 30 30 31 32 32 31 30 29 28 27 26 25 24 22 22 23 23 23 23 24 24 25 26 27 27 28 27 28 27 26 26 27 28 28 28 27 29 31 31 30 31 31 31 30 29 29 29
8 10 12 13 13 13 13 13 12 12 13 15 17 17 17 18 19 19 20 21 22 23 25 27 30 31 33 34 34 33 32 32 32 31 31 30 30 31 31 31 32 33 32 31 30 29 28 26 25 24 24 25 25 25 25 25 25 24 24 25 25 27 28 28 27 27 27 27 27 28 28 29 28 27 28 29 29 28 29 30 31 31 30 29 29
11 13 14 14 12 12 11 11 11 11 13 14 15 15 16 17 17 18 19 20 22 23 25 26 28 30 31 32 32 32 32 32 32 33 33 32 32 32 32 33 33 33 32 30 28 27 26 25 24 24 24 24 25 25 25 26 26 26 26 26 26 27 27 27 26 27 27 28 28 28 29 29 30 29 28 29 29 28 27 29 30 31 32 31 30
14 15 15 13 11 10 9 9 10 12 13 13 14 15 16 16 17 18 19 20 21 22 24 25 27 27 27 27 28 28 29 30 30 30 30 30 30 30 30 31 31 30 28 26 24 24 23 23 23 23 23 23 23 23 24 25 26 27 27 27 27 27 27 26 25 26 27 28 28 30 31 32 33 32 31 31 32 31 30 30 30 31 32 32 31
15 15 13 10 9 9 9 9 11 13 14 14 15 16 17 17 18 18 19 21 22 23 25 26 27 27 26 26 27 27 27 28 28 27 26 26 24 23 22 22 20 19 19 18 18 19 20 21 22 22 23 23 23 23 24 25 25 26 27 27 27 27 27 26 26 27 28 28 29 31 33 35 36 37 36 36 35 34 31 31 31 31 31 31 30
13 12 9 8 8 9 9 11 13 14 15 15 17 17 18 18 19 19 19 21 22 24 26 28 28 28 28 28 28 27 27 27 27 27 26 25 24 23 21 20 19 18 18 18 19 19 20 21 21 22 22 23 24 24 25 25 25 25 25 26 25 26 26 27 28 28 29 30 31 33 35 37 39 39 39 39 38 35 33 31 31 32 32 31 30
10 8 7 8 8 8 10 12 14 15 16 17 18 18 19 19 20 20 20 22 23 24 26 27 28 29 30 29 28 28 27 26 26 26 26 25 24 23 22 22 21 21 21 20 20 20 20 21 21 22 23 24 24 24 25 25 25 25 25 25 25 25 26 28 29 30 30 31 33 34 35 37 39 40 40 40 39 36 34 32 31 31 32 31 30
8 7 7 7 7 8 10 13 15 16 16 17 17 18 19 20 21 21 22 22 23 24 25 27 28 30 30 29 29 28 27 26 26 26 25 24 23 22 22 22 21 21 21 21 21 21 21 22 22 23 24 25 25 26 25 25 25 25 25 25 24 24 25 26 28 29 30 30 31 33 34 36 38 39 39 39 38 36 34 32 31 31 32 32 32
Wind_Direction
204 206 210 213 216 219 222 225 225 223 222 224 226 226 228 232 235 236 239 242 241 239 241 245 246 245 245 246 245 242 242 240 238 238 240 243 244 242 240 241 246 250 250 249 249 254 260 260 261 270 285 290 294 299 300 298 294 291 296 303 311 319 312 287 264 279 297 306 313 320 324 323 325 334 341 337 334 331 323 321 325 326 327 327 325
207 207 211 213 215 218 220 222 223 224 226 230 232 232 232 235 237 238 240 244 244 241 241 245 247 248 248 248 247 244 243 243 240 240 242 243 245 246 246 246 246 248 249 248 246 247 252 254 253 255 266 277 280 286 292 293 289 286 289 292 297 310 318 304 278 273 289 300 309 314 318 320 320 327 335 333 330 328 325 323 323 324 326 326 324
211 211 215 215 214 215 218 221 222 223 226 229 232 233 235 238 240 241 242 244 245 244 245 248 249 250 250 249 248 245 245 247 246 246 247 246 246 247 248 249 250 250 248 248 250 252 252 251 249 250 256 264 268 272 280 285 285 284 288 291 290 294 309 310 295 277 283 295 305 309 312 315 315 320 326 325 321 321 319 319 321 324 326 326 325
208 214 217 215 213 213 216 219 220 221 224 228 230 232 234 237 240 243 243 244 245 247 250 252 250 250 250 249 248 246 246 248 249 250 250 250 250 252 252 252 254 255 253 253 256 258 260 257 253 253 255 258 261 264 269 273 274 279 287 291 286 284 293 302 300 291 284 288 297 304 307 310 312 315 318 318 317 317 317 318 323 327 327 324 320
206 213 217 215 212 212 213 215 218 220 221 225 228 230 231 235 239 242 244 245 247 248 249 251 251 251 251 251 250 247 247 248 250 251 252 251 252 256 258 256 256 258 259 262 262 260 262 265 266 265 264 262 261 262 268 270 268 273 282 286 284 284 289 293 295 295 287 285 293 301 304 305 307 309 312 314 316 318 320 324 327 329 328 325 319
205 208 214 216 214 212 212 214 216 219 222 224 225 227 229 232 236 241 245 248 249 249 248 249 250 250 252 253 252 249 246 247 249 252 254 254 253 255 259 260 260 260 261 265 268 266 265 268 272 273 272 270 267 266 269 272 272 274 278 281 283 287 289 287 288 291 288 285 289 294 298 300 301 305 309 311 311 313 319 325 329 330 329 328 323
210 208 212 215 214 213 215 218 219 220 224 226 226 227 228 230 233 236 241 246 249 249 249 250 251 250 251 252 251 250 247 246 248 251 253 254 254 254 257 260 261 261 261 264 267 268 269 271 273 273 273 273 272 272 274 276 277 277 278 279 281 283 284 282 282 285 284 282 283 286 290 294 295 299 305 308 307 309 314 319 324 329 331 330 325
214 209 209 212 214 215 216 220 223 224 227 230 231 232 231 232 234 235 238 241 245 247 248 250 252 252 253 253 252 251 249 248 248 249 251 253 253 254 256 259 260 261 261 263 265 267 269 271 273 274 274 274 273 274 275 276 279 280 279 279 279 280 281 280 280 282 281 279 281 283 285 288 290 295 301 304 305 311 317 314 313 321 326 327 324
215 209 210 219 227 231 227 221 218 221 225 229 232 234 234 235 238 240 241 243 246 247 247 249 251 251 253 254 253 251 250 250 251 251 252 252 252 254 256 257 258 259 260 262 263 265 267 270 273 276 278 278 277 277 277 277 280 281 282 282 283 284 284 283 282 282 281 280 280 282 283 284 288 292 297 301 303 309 314 310 308 317 321 321 323
204 199 198 207 218 242 248 238 227 224 227 231 233 235 235 237 241 245 246 246 246 246 246 249 252 252 252 253 254 253 250 251 253 254 255 255 255 255 256 257 258 258 260 262 262 263 265 267 271 274 277 279 278 278 279 280 281 281 282 284 286 287 286 285 284 283 281 279 280 282 281 281 287 290 293 298 302 305 308 308 309 316 320 319 321
171 157 156 175 182 189 223 240 236 227 227 232 234 236 238 240 242 244 245 245 245 244 243 247 252 255 254 252 254 253 251 252 254 255 256 256 256 256 258 260 260 259 261 263 264 265 265 267 270 273 274 274 274 274 275 277 279 281 282 284 286 287 284 283 284 284 281 279 279 281 277 277 286 291 291 295 299 301 305 306 306 311 314 312 311
133 132 133 141 147 147 159 181 181 163 177 197 200 205 222 236 242 244 243 242 241 242 242 244 249 254 253 250 251 252 252 253 254 256 256 256 255 256 258 260 261 261 263 265 267 268 268 269 273 275 276 275 274 273 273 273 275 277 280 283 285 286 286 283 282 283 281 279 278 278 278 277 283 288 290 292 296 299 301 301 301 303 304 299 293
125 130 126 122 119 118 126 133 123 110 109 125 146 158 168 189 228 254 256 246 239 240 242 243 246 250 251 249 249 250 253 254 255 256 256 256 256 256 258 259 260 261 264 266 268 270 271 273 275 277 279 279 279 278 277 276 277 277 279 280 281 283 284 283 283 284 284 281 276 277 283 282 280 286 292 291 290 293 294 295 297 298 297 294 292
105 100 96 95 96 98 101 99 91 81 71 65 65 78 101 120 143 230 276 258 243 243 246 245 246 246 247 248 247 247 251 254 255 256 256 257 258 259 259 260 260 261 263 264 267 270 272 274 276 279 282 283 283 283 282 282 282 282 281 281 281 281 282 282 284 285 286 285 280 281 288 288 285 290 297 294 289 289 290 292 295 296 294 292 293
87 83 78 74 75 77 76 73 71 65 57 51 51 47 33 41 97 102 319 284 247 247 257 253 253 249 247 249 249 247 249 254 257 258 256 256 257 259 260 261 261 261 262 263 265 269 272 273 275 278 281 283 284 284 284 284 284 284 284 283 283 283 283 283 284 285 286 286 285 286 290 292 291 293 297 296 293 293 292 291 292 292 291 292 293
74 73 68 63 61 61 62 64 62 57 53 50 49 47 28 11 22 16 338 312 287 286 304 308 297 277 257 254 257 253 251 258 269 272 269 262 258 258 259 260 261 262 263 264 266 270 273 274 274 276 278 280 283 284 285 284 282 282 283 283 284 284 283 282 282 282 283 283 284 286 287 289 291 292 293 293 291 292 291 288 288 287 286 288 290
65 62 58 56 56 55 56 59 55 49 47 45 41 37 27 15 16 13 352 333 314 295 286 287 295 297 291 285 291 287 262 248 260 284 296 292 280 270 265 264 265 266 267 269 271 273 275 276 277 278 278 279 282 284 285 284 281 280 280 281 282 282 282 283 283 283 282 281 283 284 285 287 290 292 292 290 289 289 285 281 283 284 281 281 283
56 54 50 50 52 52 52 52 48 40 35 32 28 23 21 18 14 7 348 337 336 318 296 284 280 284 286 294 329 329 303 269 257 255 280 307 305 296 285 276 274 274 274 275 276 277 278 279 280 281 281 282 283 284 286 285 281 280 279 279 279 278 280 283 284 283 283 284 285 287 289 291 294 295 295 293 291 289 281 278 283 282 274 271 274
48 47 46 46 46 46 45 41 38 33 27 24 21 15 14 13 10 6 356 346 344 338 322 304 293 293 292 302 335 336 326 313 291 273 281 318 316 310 301 290 284 284 284 285 284 284 284 285 285 285 285 287 288 288 289 288 285 283 281 279 276 276 279 282 282 283 286 288 291 293 294 296 297 297 297 296 295 292 285 283 285 279 270 270 273
39 38 37 38 38 38 39 35 32 31 27 25 24 20 15 10 6 5 6 4 360 354 346 335 326 326 329 339 346 340 337 334 320 306 314 324 313 306 299 294 294 295 294 294 294 294 295 293 292 293 292 293 293 291 291 291 289 288 285 278 274 276 280 281 281 283 286 288 291 292 293 295 296 296 296 298 298 296 292 290 288 281 273 272 272
33 34 32 34 35 36 36 34 31 32 29 26 27 27 24 20 15 10 6 5 5 5 2 354 345 342 345 351 358 356 351 348 340 334 340 347 333 315 304 301 306 305 301 300 301 301 303 302 301 301 299 297 297 294 292 291 290 289 285 281 280 282 282 281 281 282 284 285 287 290 292 294 295 295 296 297 298 299 297 295 292 287 280 274 272
37 38 36 36 35 34 35 34 34 36 34 32 33 35 34 33 31 28 24 22 23 25 24 20 15 13 14 17 20 22 25 30 29 21 20 24 9 338 321 319 323 318 310 309 309 308 309 309 308 305 302 300 298 295 294 293 291 289 288 287 287 287 284 282 283 284 284 286 288 289 291 292 292 293 294 295 297 300 300 297 295 291 286 282 278
40 40 39 38 36 34 35 34 34 35 33 31 32 32 31 33 33 31 28 27 27 28 27 26 24 22 25 30 32 31 33 34 29 23 24 24 7 339 326 326 328 324 321 322 324 325 324 323 320 315 310 306 302 299 296 294 292 290 289 288 288 288 287 286 285 284 285 286 287 288 290 291 291 292 293 296 300 302 301 299 296 292 288 286 284
37 37 36 36 33 34 34 31 28 27 26 24 24 22 20 20 22 22 20 20 20 18 16 15 13 11 11 13 13 15 16 10 2 3 10 13 3 343 333 332 331 328 328 331 334 333 331 328 324 320 316 312 308 304 300 297 296 293 290 286 284 284 285 285 286 286 285 285 284 286 288 289 290 290 292 297 300 301 299 297 294 291 288 285 284
35 33 33 32 29 29 30 27 22 20 19 18 16 15 12 10 10 10 9 10 11 9 7 4 3 2 0 358 356 354 353 349 348 352 358 1 356 345 339 339 338 332 327 325 324 323 321 318 315 311 309 307 306 304 300 297 298 298 296 293 287 283 281 282 285 286 286 285 285 285 285 286 288 290 292 295 296 294 293 291 289 288 286 283 282
34 30 27 24 22 21 22 20 15 11 11 11 11 11 9 6 6 5 5 6 6 3 1 359 357 356 354 351 348 345 343 342 344 347 350 350 347 342 339 339 337 331 324 319 318 317 317 316 314 311 309 307 306 304 301 298 297 298 300 301 299 295 292 289 287 285 284 284 284 284 285 286 288 289 291 291 290 289 287 286 285 285 283 281 280
30 27 22 16 13 12 13 13 10 8 9 9 7 9 10 8 6 5 5 5 3 0 359 356 355 353 349 345 343 341 338 338 340 344 344 342 339 337 336 337 336 332 328 322 318 316 315 314 315 315 314 312 310 309 306 304 303 303 304 307 308 307 305 299 291 286 283 283 282 284 287 289 288 288 287 286 285 285 285 282 281 282 282 281 279
23 21 17 11 7 7 7 7 8 8 10 9 7 7 8 7 5 4 5 4 359 355 353 351 350 348 343 340 339 337 336 338 340 342 342 338 335 334 334 334 334 332 330 327 321 316 312 311 313 316 318 319 318 317 316 315 314 312 311 312 312 309 305 302 295 290 287 285 284 286 288 288 287 286 286 284 283 285 285 281 277 279 282 280 275
16 11 8 5 4 2 0 0 1 2 1 360 359 358 357 356 354 351 354 357 355 350 345 342 341 339 336 335 334 332 332 335 338 337 335 332 331 331 331 330 329 327 327 327 324 319 315 313 314 317 320 322 322 321 321 319 318 315 313 312 310 305 303 300 295 292 291 289 287 286 286 287 287 287 287 285 284 285 284 281 278 280 280 275 269
13 7 1 357 357 357 356 354 354 354 353 351 349 345 343 343 344 342 341 341 340 340 337 334 332 330 328 329 330 327 327 330 331 329 325 322 322 323 323 323 323 323 323 323 323 321 318 316 316 317 318 319 318 318 318 317 314 313 312 311 308 303 299 296 295 293 293 291 288 286 285 285 285 286 286 284 284 285 285 284 283 281 276 270 266
17 9 2 357 355 354 353 350 349 349 348 346 344 342 339 337 338 340 340 338 337 337 336 335 335 330 322 321 321 320 321 324 324 324 323 320 317 317 317 318 318 320 321 321 319 317 316 315 314 314 315 314 312 313 314 312 310 310 311 311 310 306 300 296 295 295 294 292 289 287 285 283 282 283 283 282 283 285 285 286 284 279 272 267 264
16 8 2 358 352 347 342 341 343 344 343 341 341 340 339 337 335 336 338 339 338 337 337 338 339 337 330 324 321 319 320 320 319 319 321 321 320 319 318 317 316 316 317 317 315 313 312 310 308 310 311 309 308 309 309 308 307 308 308 308 309 310 307 305 303 300 295 292 290 288 286 284 282 282 283 282 282 283 285 285 283 277 273 269 266
6 360 355 350 343 338 336 337 338 339 339 338 338 338 336 333 331 331 332 334 335 335 336 336 336 335 334 332 327 324 324 325 323 320 318 317 319 320 320 319 318 317 315 313 311 309 308 305 303 304 305 304 304 306 306 306 307 307 307 307 307 310 312 313 311 306 300 297 295 291 289 288 285 283 283 283 282 282 283 284 283 281 277 272 270
344 344 344 340 334 332 334 336 336 335 335 336 336 335 333 330 327 326 326 328 329 330 330 332 333 333 332 330 327 326 327 329 330 328 324 320 318 318 319 320 321 321 321 320 316 312 309 304 300 300 301 302 303 305 304 306 309 310 308 308 308 310 313 314 311 308 306 303 300 295 292 291 288 285 284 284 284 282 281 281 282 282 278 274 273
328 328 330 330 328 328 330 331 330 329 331 333 334 332 328 325 322 320 319 320 320 319 321 324 329 331 330 328 327 327 327 327 328 328 328 326 324 322 322 322 323 323 324 324 322 319 315 310 303 301 302 303 304 304 303 306 312 315 315 317 319 320 322 323 323 324 323 320 314 309 305 303 300 296 292 288 285 282 279 278 279 278 275 273 274
329 329 329 329 329 327 326 326 327 327 329 329 328 325 321 318 316 314 313 313 312 312 315 319 324 327 327 326 327 326 325 325 324 324 324 326 327 326 324 323 323 321 319 320 319 318 317 315 310 305 304 306 305 304 302 304 311 319 321 322 324 326 327 328 329 329 329 328 325 321 319 318 316 312 306 298 291 285 281 278 276 274 272 270 270
341 342 341 339 336 332 329 327 326 325 323 320 318 317 316 314 312 310 310 310 310 311 313 317 321 323 324 325 326 326 323 322 321 320 320 323 325 324 322 320 319 316 314 316 317 314 314 315 312 306 303 304 300 292 288 291 301 310 313 312 313 316 318 320 321 322 321 320 318 317 317 318 318 317 314 307 300 295 289 283 277 273 271 269 266
344 341 340 337 334 331 328 325 323 320 316 314 313 314 312 311 310 310 309 309 310 311 312 315 318 319 320 322 325 324 322 319 318 317 317 319 320 320 319 318 315 312 310 312 314 312 310 311 309 301 289 283 277 269 272 287 297 303 307 308 309 311 312 314 315 316 314 313 312 311 311 312 313 313 311 306 303 302 300 294 286 277 272 268 264
334 335 336 334 331 326 323 321 319 316 314 312 311 312 311 311 312 312 310 309 309 308 309 310 311 313 315 319 322 323 322 319 315 313 312 311 311 312 313 312 311 310 309 310 313 313 309 307 304 294 279 270 266 265 273 286 294 299 303 308 310 311 312 312 313 312 311 309 308 307 307 307 307 308 305 300 299 300 302 302 298 290 281 274 268
333 337 339 338 334 329 325 321 317 315 315 313 311 311 312 312 312 312 310 308 306 305 305 305 307 310 314 317 319 321 318 314 310 308 306 305 303 303 302 302 303 305 305 306 309 311 310 307 300 286 271 264 266 272 280 289 295 300 305 308 310 311 312 311 310 308 305 304 304 305 305 305 304 304 300 296 296 297 297 297 297 294 289 283 277
335 339 340 338 334 329 325 321 317 316 317 317 315 313 312 311 310 309 308 307 307 307 307 307 308 310 312 313 315 315 312 308 306 305 303 301 300 298 296 294 294 295 296 299 303 307 307 303 290 273 264 266 274 281 289 295 298 302 305 307 309 310 310 309 307 304 302 300 300 301 301 302 302 302 299 296 296 297 296 293 291 290 289 287 284
339 340 338 335 332 327 322 318 315 314 315 315 314 312 308 307 308 308 308 309 310 311 310 309 309 311 312 313 314 314 310 307 305 303 301 299 298 296 295 294 292 291 293 297 300 301 299 292 278 268 269 277 284 289 294 298 301 303 305 306 307 307 306 306 305 302 300 298 298 298 298 299 300 300 299 297 297 297 295 292 290 289 287 286 284
342 339 334 331 328 324 319 315 313 311 310 310 310 309 306 306 308 309 309 309 309 308 308 308 310 312 314 315 314 312 307 303 301 299 297 296 295 293 293 293 293 293 295 296 297 295 291 284 277 275 277 282 288 293 297 300 301 302 303 305 304 303 302 301 301 300 298 296 295 295 294 295 295 296 295 295 296 296 294 292 289 288 286 284 283
336 331 328 325 324 320 314 308 305 304 306 308 307 306 305 304 305 306 306 306 306 306 306 308 310 312 312 313 313 310 306 303 300 297 295 293 291 290 290 290 291 293 295 296 294 289 284 279 277 277 279 282 286 291 294 297 299 300 301 301 300 299 298 297 297 296 294 293 291 290 290 291 291 291 290 291 292 292 292 291 289 287 285 283 281
331 330 328 325 321 316 310 303 299 298 300 301 301 300 301 302 303 304 305 306 306 307 306 307 309 310 311 312 312 310 307 303 300 297 295 294 292 291 290 290 290 291 295 296 292 283 277 274 274 275 278 281 285 289 292 295 296 297 297 296 295 294 294 294 293 292 291 290 289 288 288 289 289 288 287 287 287 287 287 287 287 287 285 283 281
335 335 333 328 319 309 303 300 299 299 300 302 304 308 311 311 309 308 308 307 307 306 306 307 309 310 310 311 311 311 309 306 301 297 295 294 293 293 292 292 291 292 293 292 284 275 271 272 276 280 282 284 286 288 291 293 295 296 295 295 293 292 292 291 291 291 290 290 289 288 287 286 286 285 284 284 284 284 283 283 283 283 283 281 280
338 338 338 333 322 311 304 302 304 309 314 319 322 322 322 318 314 311 309 308 307 306 307 310 311 310 310 311 312 313 314 313 309 305 302 300 300 300 298 295 292 290 286 280 273 268 270 276 281 285 289 291 291 291 291 292 293 293 294 294 293 291 291 291 291 289 288 289 289 287 286 284 284 283 283 283 283 283 283 282 281 280 280 280 279
339 341 341 334 322 315 310 310 316 322 327 327 324 321 318 315 312 309 307 306 306 307 310 311 311 309 308 309 310 311 314 316 316 316 316 316 316 315 312 306 301 294 287 280 277 278 282 286 289 292 294 296 296 296 296 295 294 293 293 293 293 292 292 292 291 288 287 288 288 287 286 285 284 284 284 284 283 282 281 281 280 279 278 278 278
340 342 338 327 319 316 316 320 326 329 327 323 320 318 316 313 310 308 307 307 307 309 310 310 308 307 306 307 308 310 312 313 314 316 318 320 321 321 319 317 315 311 308 305 302 300 299 299 299 299 299 299 299 300 301 301 300 298 296 294 293 293 292 291 289 287 286 286 285 285 286 286 285 285 284 284 283 281 279 278 277 277 277 276 276
339 339 331 322 317 316 319 326 330 327 322 318 317 317 314 311 309 309 311 311 310 309 308 307 306 306 306 306 306 308 309 309 311 313 315 317 318 319 318 317 316 315 314 314 312 311 309 308 306 306 305 305 304 304 304 303 303 302 301 299 296 293 291 289 287 285 284 283 283 283 284 284 285 285 284 284 283 281 277 275 274 274 274 274 275
341 337 327 319 316 322 329 330 328 323 318 316 316 314 313 312 312 312 312 312 310 309 308 307 308 309 308 307 306 305 306 307 308 309 311 313 314 315 316 316 316 315 315 314 314 313 312 312 311 310 309 308 307 306 305 305 305 304 304 303 300 296 293 290 287 286 284 284 283 282 282 283 283 283 283 282 281 279 276 274 273 271 271 272 273
Height
835 839 841 843 844 845 847 848 849 850 851 851 853 853 855 857 858 860 860 862 862 862 863 863 864 865 865 866 866 866 867 867 868 869 869 870 870 871 871 872 872 872 873 873 873 874 874 874 875 875 875 875 875 875 876 876 876 876 876 876 875 876 875 875 875 873 872 872 871 870 869 868 867 866 865 864 862 861 860 860 859 858 858 857 855
835 840 841 842 843 843 845 846 847 849 849 851 852 853 854 855 857 858 859 860 861 862 862 862 863 864 864 865 865 866 866 866 867 868 868 869 869 869 870 871 871 871 872 872 872 873 873 873 873 874 874 874 874 874 875 875 875 875 875 875 875 875 874 874 874 873 871 870 870 869 869 868 866 865 865 863 862 861 860 859 858 857 857 855 854
836 839 840 840 841 841 842 844 845 846 848 849 851 852 853 854 855 857 857 859 860 860 861 861 862 863 863 864 864 865 866 866 866 866 867 867 868 868 869 869 870 871 871 871 872 872 872 872 872 872 873 873 873 873 873 873 873 874 874 874 874 873 873 873 872 872 871 869 869 868 868 867 866 864 864 863 862 861 860 859 858 856 855 854 853
836 838 839 839 839 839 840 841 843 844 846 847 849 850 851 852 854 855 856 857 858 859 860 860 861 861 862 862 863 864 864 865 865 865 866 866 867 867 868 868 869 869 870 870 871 871 871 871 871 872 872 872 872 872 872 872 872 872 872 872 872 872 872 872 871 871 870 869 868 867 867 866 865 864 863 862 861 860 859 858 857 855 854 853 852
834 836 838 838 838 838 839 840 841 842 844 845 847 848 850 851 852 853 854 855 856 857 858 859 859 860 860 861 861 862 863 863 864 864 864 865 866 866 866 867 868 868 869 869 870 870 870 870 870 871 871 871 871 871 871 871 871 871 871 871 871 871 871 871 870 870 869 868 867 866 866 865 863 862 862 861 859 858 857 856 855 854 853 852 851
833 834 836 836 836 836 837 838 840 841 843 844 845 847 848 850 851 851 852 853 854 855 856 857 858 858 859 859 860 860 861 862 862 862 863 864 864 865 865 865 866 866 867 868 868 869 869 869 869 870 870 870 870 870 870 870 870 870 869 869 869 869 869 869 869 868 868 867 866 865 864 864 863 861 860 860 859 857 856 855 853 852 851 850 849
831 832 834 835 835 835 836 837 838 840 842 843 844 846 847 848 849 850 851 852 853 854 854 855 856 856 857 857 858 859 859 860 860 861 861 862 863 863 863 864 864 864 865 866 866 867 867 867 868 868 869 869 869 869 869 869 869 868 868 868 868 868 867 867 867 867 866 866 865 864 863 863 862 860 859 859 858 857 856 854 852 850 849 848 847
830 832 834 835 835 834 835 837 838 840 841 842 843 844 845 846 847 848 849 850 851 852 853 854 854 854 855 855 856 857 857 858 859 859 860 860 861 861 861 862 862 862 863 864 864 865 865 866 866 866 867 867 868 868 868 868 868 867 867 867 866 866 866 865 865 865 865 864 864 863 862 861 860 859 858 857 856 855 855 854 852 849 848 847 845
831 832 832 834 835 836 837 837 838 839 840 841 842 843 843 844 846 847 848 848 849 850 851 852 852 852 853 853 854 855 855 856 856 857 858 858 859 859 860 860 860 860 861 861 862 863 863 863 864 864 864 865 865 866 866 866 866 866 865 865 865 865 864 864 864 863 863 863 862 861 861 860 859 858 857 856 855 854 853 853 851 849 848 846 843
829 828 828 829 833 837 840 840 838 838 839 840 841 841 842 843 844 845 846 847 847 848 849 849 850 850 850 851 851 852 853 853 854 855 856 856 857 857 858 858 859 859 859 859 860 860 861 861 861 862 862 862 862 863 863 863 864 863 863 863 864 864 863 862 862 861 861 861 860 860 859 858 857 856 855 854 853 853 852 851 849 848 847 845 841
827 828 828 829 831 835 839 841 840 838 838 839 839 840 841 841 842 843 844 845 845 846 846 847 847 847 848 848 849 849 850 851 852 853 854 854 855 855 856 857 857 857 857 857 858 858 858 859 859 859 860 860 860 860 860 860 861 861 861 861 862 862 861 861 860 859 859 859 858 858 858 856 855 854 854 852 852 851 850 849 848 846 845 844 842
829 832 833 833 834 835 837 839 840 839 838 839 839 839 839 840 841 842 842 843 844 844 844 845 845 845 845 845 846 846 847 848 849 851 851 852 853 854 854 855 855 855 855 855 855 855 856 856 856 856 857 857 857 858 858 858 858 858 858 859 859 859 859 859 858 857 857 856 856 855 855 854 853 852 851 850 850 849 848 847 847 845 844 843 841
833 835 836 836 837 837 837 839 839 838 838 839 839 839 838 838 840 841 842 842 842 842 843 843 843 843 843 843 844 844 845 846 847 848 849 850 851 851 852 852 852 853 853 853 853 853 853 853 853 853 854 854 854 855 855 855 855 855 855 856 856 856 856 856 856 856 855 854 853 852 852 851 850 849 849 849 848 847 846 845 844 843 842 841 839
835 836 837 837 837 838 839 839 839 838 839 839 839 839 839 838 837 839 841 842 842 842 842 841 841 842 842 842 842 842 843 844 845 846 847 848 849 849 849 850 850 850 850 851 851 850 851 851 851 851 851 851 851 852 852 852 852 852 852 852 852 853 853 853 853 853 852 852 851 849 849 849 848 847 847 847 846 845 844 843 842 841 840 838 837
837 837 837 837 837 838 838 839 839 839 840 840 839 839 839 838 837 837 840 842 842 842 842 841 841 841 841 841 841 841 842 843 844 845 846 847 847 847 847 848 848 848 848 848 848 848 848 848 848 848 848 848 848 849 849 849 849 849 849 849 849 849 849 849 850 850 849 849 848 847 846 846 845 845 844 844 843 842 842 841 840 839 837 835 834
838 838 837 837 838 838 838 838 839 839 840 840 839 839 840 839 837 837 840 842 842 842 842 842 842 841 840 840 840 840 841 841 842 843 845 846 846 846 846 846 846 846 846 846 846 846 846 846 846 846 845 845 845 846 846 847 847 847 846 845 845 845 845 846 846 846 846 845 845 844 844 843 843 842 842 841 840 839 839 838 837 837 835 833 831
838 839 839 838 839 839 839 838 839 840 840 840 840 840 840 840 838 837 840 843 843 842 842 842 842 841 840 839 839 839 839 839 840 841 843 845 845 846 845 845 845 844 844 844 845 844 845 844 844 844 843 843 843 843 844 844 844 844 843 842 842 842 841 842 843 843 842 842 842 841 841 840 840 839 838 838 837 837 837 835 834 834 834 832 830
839 840 840 840 840 840 840 839 839 840 840 840 840 840 840 840 839 839 841 843 843 843 842 842 842 842 840 839 838 838 838 838 838 838 839 842 844 846 846 844 844 843 843 843 843 842 842 842 842 842 841 841 841 841 841 842 841 841 840 839 839 838 838 838 839 838 838 838 838 838 837 837 836 835 834 834 834 835 834 832 831 832 831 830 828
840 841 841 841 841 841 840 840 840 840 841 840 840 840 840 840 839 840 841 841 841 842 842 842 842 841 840 838 838 838 837 837 837 837 837 838 840 844 846 845 843 842 841 841 841 840 840 840 840 840 839 839 839 838 839 839 838 838 838 837 836 835 834 835 836 835 835 835 834 834 833 833 832 831 831 830 831 831 831 829 829 829 828 827 826
841 841 841 841 841 841 841 841 841 841 841 841 841 841 841 840 840 840 840 839 839 839 839 839 839 839 838 837 838 839 837 836 836 837 837 837 837 842 846 845 842 841 840 839 838 837 837 837 837 837 837 836 836 835 835 835 835 834 834 834 832 831 832 833 833 833 832 831 831 830 829 829 828 827 827 827 827 827 827 826 826 826 825 824 823
841 841 841 841 841 841 841 841 841 841 841 841 842 842 841 841 840 840 839 839 838 837 837 837 836 836 836 836 837 837 837 836 836 837 837 836 836 840 845 845 842 840 839 838 836 835 834 834 834 834 834 833 833 832 832 832 831 830 830 830 829 829 829 829 829 829 829 828 827 826 826 825 824 823 823 823 823 823 823 822 822 822 822 821 820
842 842 842 842 842 842 842 842 842 842 842 842 842 842 842 841 841 840 839 839 838 837 837 836 836 836 835 836 836 836 836 837 837 837 836 835 836 840 844 844 841 839 837 836 835 833 832 832 832 831 831 831 830 830 829 829 828 827 826 826 826 826 826 825 825 825 825 824 824 823 822 821 820 819 819 819 819 819 819 818 818 817 817 817 816
843 843 843 843 843 843 843 843 843 843 843 843 843 842 842 842 841 840 840 839 838 838 837 837 837 836 836 836 836 836 836 837 837 837 837 837 838 841 843 842 840 838 836 835 833 832 831 830 829 829 828 828 828 827 826 826 825 824 824 824 823 823 823 822 822 822 821 821 820 819 818 818 817 816 816 816 816 816 815 814 814 813 812 812 811
844 844 844 845 845 845 844 844 844 844 843 843 843 842 842 842 841 840 840 840 839 838 838 837 837 837 836 836 835 835 836 837 837 837 836 837 839 841 842 840 838 836 835 833 832 831 829 828 827 827 826 825 825 825 824 823 822 822 821 821 821 821 820 819 819 819 818 818 817 816 815 815 814 813 813 813 813 812 811 810 809 809 808 807 806
844 845 845 845 846 846 845 845 845 844 844 844 843 843 842 842 841 840 840 840 839 839 838 837 837 836 836 836 835 835 836 836 836 836 836 837 839 841 840 838 836 834 833 832 831 829 828 827 826 825 824 823 823 822 821 820 820 819 818 818 818 818 818 818 818 818 816 815 814 813 812 811 811 810 810 810 809 808 807 806 804 804 804 803 802
845 845 845 846 846 846 846 845 845 845 844 844 844 843 843 842 841 841 840 840 839 839 838 837 837 836 835 835 835 835 834 834 835 835 835 836 837 837 836 834 833 832 831 829 828 827 826 825 824 823 822 821 820 819 818 817 817 816 816 816 815 815 816 816 815 814 813 811 810 810 809 808 807 807 806 806 805 803 802 801 800 799 799 799 798
845 845 845 845 845 845 845 845 845 845 845 844 844 843 843 842 841 840 840 840 839 839 838 837 837 836 835 834 833 833 833 833 833 833 834 834 833 833 832 831 830 829 828 827 825 824 823 822 821 820 820 819 818 817 816 815 814 813 813 813 813 813 813 812 811 810 809 808 807 806 805 804 804 803 802 802 800 798 798 798 796 794 794 795 795
845 845 845 845 845 845 844 845 844 844 844 844 843 843 842 841 841 840 840 840 839 839 838 838 837 837 836 834 833 833 832 832 833 833 833 832 831 831 830 828 827 826 825 824 822 822 821 820 819 818 817 816 815 814 813 812 811 811 810 810 811 810 809 807 807 807 806 806 805 803 802 801 800 799 798 797 795 793 793 794 792 791 791 792 792
846 846 846 845 845 845 844 844 843 843 842 842 842 842 842 841 841 840 840 840 839 839 838 837 837 836 836 835 834 833 832 832 832 832 832 832 831 829 828 826 825 824 823 822 820 819 818 817 816 816 814 813 812 811 811 810 809 808 808 808 808 807 805 804 804 803 803 803 802 800 799 797 796 795 795 794 791 789 790 790 789 788 788 789 788
847 846 846 845 845 845 844 844 843 842 841 840 840 840 840 840 840 839 839 839 839 838 838 837 836 836 835 834 834 834 833 832 831 831 830 829 828 828 826 825 823 822 821 820 818 817 816 815 814 814 813 812 811 810 809 808 807 806 805 805 805 805 804 802 801 800 800 799 798 797 796 795 794 793 792 790 787 786 787 788 787 786 786 785 784
847 847 846 846 845 845 844 844 843 842 842 841 840 838 837 837 838 838 838 838 837 837 837 836 836 836 835 834 833 832 832 831 830 829 828 827 826 825 824 823 821 820 819 817 816 815 814 813 813 812 812 811 810 809 808 807 805 804 803 802 802 802 802 800 799 798 798 797 796 795 794 793 792 790 788 786 784 784 784 784 784 783 782 782 781
847 847 846 846 846 845 844 844 843 843 842 841 841 840 838 836 835 835 836 836 835 835 835 834 834 834 834 833 832 831 830 829 828 827 827 825 824 823 821 820 819 818 817 816 814 813 812 812 811 811 810 810 808 808 807 805 804 803 802 801 800 799 799 798 797 796 796 795 794 793 791 790 789 787 785 784 782 782 781 781 780 780 780 779 778
846 846 845 845 845 844 844 843 842 842 841 841 840 839 839 837 835 834 833 833 833 833 833 833 833 832 832 832 831 830 829 828 827 826 825 824 822 821 819 818 818 817 815 814 812 811 810 809 809 808 808 808 807 806 805 804 803 802 801 800 798 797 796 795 795 794 793 792 791 790 788 787 786 784 782 781 780 779 778 777 777 778 777 777 776
844 844 844 843 843 842 842 841 841 840 839 839 838 837 837 837 836 834 832 831 831 831 831 831 831 830 830 829 829 828 827 826 825 824 823 821 820 819 817 816 816 815 813 812 811 810 808 807 806 806 805 805 804 804 803 802 801 800 799 798 797 795 794 793 792 792 790 789 788 787 785 784 783 781 779 778 777 776 775 774 774 774 774 773 773
843 843 843 842 841 841 840 840 839 838 838 837 837 836 835 835 834 833 832 831 829 829 828 828 829 828 828 827 826 826 825 824 823 822 821 819 818 817 815 814 814 813 811 810 809 808 807 805 804 803 803 802 802 802 801 800 799 799 798 797 796 795 793 792 791 790 789 787 786 784 783 781 780 779 778 775 773 772 770 769 770 770 769 769 768
842 842 841 841 840 840 839 839 838 838 837 836 836 835 834 834 833 832 831 830 828 827 826 826 826 826 826 825 824 823 822 821 820 819 818 817 816 815 813 812 811 811 809 808 807 806 805 804 802 801 801 800 800 799 799 798 798 797 797 796 794 793 792 791 790 789 788 786 784 782 781 780 779 778 776 773 770 768 767 766 766 765 765 764 763
841 840 840 840 839 839 838 838 837 837 836 835 835 834 833 833 832 830 829 828 827 825 824 824 823 823 823 823 822 821 820 819 818 817 816 815 814 813 812 810 809 808 807 806 805 804 803 802 801 800 799 799 798 797 797 796 796 795 795 794 793 792 791 789 788 787 786 784 782 780 779 778 777 776 774 771 767 765 764 763 762 761 760 760 759
840 839 839 839 838 837 837 837 836 835 835 834 833 833 832 831 830 829 828 827 826 825 823 822 821 821 820 820 820 819 818 817 816 814 814 813 812 811 809 808 807 806 805 804 803 802 801 799 799 798 797 797 796 795 795 794 794 793 792 792 791 790 789 787 786 785 783 782 780 778 776 775 774 773 772 769 766 763 761 760 758 757 755 755 754
838 838 838 837 837 836 836 835 834 834 833 832 831 831 830 829 829 828 827 826 825 824 822 821 821 820 819 818 818 817 815 814 813 812 811 811 810 809 808 806 805 803 802 801 800 800 798 797 796 796 795 794 793 793 792 791 791 790 790 789 788 787 786 785 784 782 780 779 776 774 773 771 771 770 769 767 764 762 760 757 756 754 753 751 750
836 836 836 835 835 835 834 833 833 832 831 830 830 829 828 828 827 826 825 824 823 822 821 820 819 818 818 818 817 816 814 811 810 810 809 808 807 807 805 804 803 801 800 799 798 797 796 794 793 793 792 791 790 790 789 788 788 787 786 785 784 783 782 781 780 779 777 776 773 771 769 768 767 766 765 764 762 760 758 756 753 751 750 748 747
835 835 834 834 834 833 832 832 831 830 830 829 828 827 827 826 825 824 823 821 820 819 818 817 817 817 817 816 816 815 813 810 808 807 806 805 804 803 802 801 800 799 798 796 795 794 793 792 791 790 789 788 788 787 786 786 785 784 783 782 780 779 778 777 777 775 774 772 770 768 766 764 764 762 761 759 758 757 755 753 750 748 747 745 744
834 834 833 833 833 832 831 831 830 829 829 828 827 826 825 824 823 822 821 819 818 817 815 814 813 813 813 813 813 812 810 808 806 805 803 802 801 799 798 797 797 796 795 794 792 791 790 789 788 788 787 786 785 784 784 783 782 781 780 778 777 775 774 773 772 771 770 768 766 764 762 761 760 759 757 755 754 753 751 749 747 745 743 742 740
833 833 833 833 832 832 831 830 829 829 828 827 826 825 824 823 822 821 820 818 817 815 813 811 810 809 809 809 809 808 807 805 804 802 800 799 798 796 795 794 793 792 791 790 789 788 787 786 785 784 784 783 783 782 781 780 779 778 776 775 773 772 771 769 768 767 766 764 762 760 759 757 757 756 754 752 751 749 748 746 744 742 740 738 737
833 833 832 832 832 831 831 830 829 828 827 826 826 825 823 822 821 820 819 817 816 814 812 810 808 807 806 805 805 804 803 801 800 798 797 795 794 793 792 791 789 788 787 786 785 785 783 782 781 781 780 780 779 778 777 776 775 774 773 771 770 768 767 766 765 763 762 760 758 756 754 753 752 752 750 749 747 746 744 742 741 739 737 735 733
832 832 831 831 831 830 830 829 829 828 827 826 825 824 823 822 820 819 818 816 815 813 811 810 808 806 804 802 802 801 799 797 796 794 793 791 790 789 788 787 786 785 783 782 782 781 779 778 778 777 776 776 775 774 773 772 771 770 769 767 766 764 763 762 761 760 758 757 754 752 750 749 748 747 746 745 744 743 741 739 737 735 734 732 730
831 830 830 829 829 828 828 828 827 827 826 825 824 822 822 820 819 818 817 815 814 812 811 809 807 806 803 801 800 798 796 794 792 790 789 788 786 785 784 782 781 780 779 779 778 777 776 775 774 773 772 772 771 770 769 768 767 765 764 763 761 760 759 758 757 756 754 753 751 749 747 745 743 742 741 740 739 738 737 735 734 732 730 728 727
829 828 828 827 827 826 826 826 825 825 824 823 823 822 821 820 819 817 816 815 814 812 810 808 807 805 803 801 799 797 795 793 790 788 786 785 783 781 780 778 777 776 775 774 774 773 772 772 771 769 768 767 767 766 765 764 762 761 760 758 757 756 754 754 753 751 750 749 747 745 743 741 738 737 736 735 734 733 732 731 729 728 726 724 723
827 826 826 825 825 825 825 824 824 823 823 822 822 821 820 819 818 817 816 814 813 811 809 808 806 804 802 800 798 796 794 792 789 787 785 783 781 779 777 775 774 773 772 772 771 770 769 768 767 766 765 764 763 762 760 759 758 757 755 754 753 751 750 749 748 746 745 744 743 741 739 736 734 732 731 730 729 728 727 726 725 723 722 721 719
826 825 825 825 824 824 824 823 823 823 822 822 821 820 819 818 817 816 814 813 811 810 809 807 805 803 801 799 796 794 792 789 787 785 783 781 779 778 776 774 773 772 771 770 769 768 767 765 764 763 762 761 759 758 756 755 753 752 751 749 748 747 745 744 743 742 741 739 738 736 734 731 729 727 726 724 723 722 722 721 720 718 717 716 714
825 825 825 824 824 823 823 823 823 822 822 821 820 819 817 816 815 814 812 811 810 808 807 805 803 801 799 796 794 792 790 787 785 783 781 779 778 776 774 773 771 770 769 768 766 765 764 763 761 760 759 757 756 754 753 751 749 748 746 744 743 742 740 739 737 736 736 735 733 731 729 727 724 722 720 719 718 717 716 715 714 714 713 711 709
825 825 824 824 823 823 822 822 822 821 821 820 818 817 816 815 813 812 811 810 808 806 805 803 801 799 796 794 791 789 787 785 783 781 779 777 776 774 772 771 769 768 767 765 764 763 762 760 758 757 755 754 752 751 749 747 746 744 742 740 738 737 735 734 732 731 730 730 728 726 724 721 719 717 715 714 713 712 710 709 709 708 707 706 705